This is the latest recevied weather packets stored in our database for station/object N1IJV-10. If no packets are shown the sender has not sent any weather packets the latest 1 day(s).
| Time | Temp. | Humidity | Pressure | Rain* | Wind** | Luminosity | Snow |
|---|---|---|---|---|---|---|---|
| 1777979925 | 10° C | 63% | 1006.8 hPa | 0 mm | 0.45 m/s, 74° | 0 W/m² | - |
| 1777979620 | 10° C | 63% | 1006.4 hPa | 0 mm | 0 m/s | 0 W/m² | - |
| 1777979317 | 10° C | 64% | 1006 hPa | 0 mm | 0 m/s | 0 W/m² | - |
| 1777979014 | 10° C | 62% | 1006.1 hPa | 0 mm | 0 m/s | 0 W/m² | - |
| 1777978711 | 10.56° C | 60% | 1006.4 hPa | 0 mm | 0.89 m/s, 60° | 0 W/m² | - |
| 1777978407 | 10.56° C | 61% | 1006 hPa | 0 mm | 0.45 m/s, 85° | 0 W/m² | - |
| 1777978103 | 10° C | 61% | 1006.4 hPa | 0 mm | 0.45 m/s, 61° | 0 W/m² | - |
| 1777977801 | 10.56° C | 62% | 1006.2 hPa | 0 mm | 0.45 m/s, 69° | 0 W/m² | - |
| 1777977497 | 10.56° C | 60% | 1006.4 hPa | 0 mm | 0.89 m/s, 338° | 0 W/m² | - |
| 1777977195 | 10.56° C | 61% | 1006.6 hPa | 0 mm | 0.89 m/s, 66° | 0 W/m² | - |
| 1777976892 | 10.56° C | 65% | 1006.6 hPa | 0 mm | 0 m/s | 0 W/m² | - |
| 1777976589 | 10.56° C | 63% | 1006.4 hPa | 0 mm | 0 m/s | 0 W/m² | - |
| 1777976289 | 10.56° C | 62% | 1005.4 hPa | 0 mm | 0 m/s | 0 W/m² | - |
| 1777975985 | 10.56° C | 60% | 1005.1 hPa | 0 mm | 0 m/s | 0 W/m² | - |
| 1777975681 | 10.56° C | 62% | 1005.3 hPa | 0 mm | 0 m/s | 0 W/m² | - |
| 1777975378 | 10.56° C | 60% | 1005.4 hPa | 0 mm | 0.45 m/s, 41° | 0 W/m² | - |
| 1777975073 | 11.11° C | 58% | 1005.5 hPa | 0 mm | 0 m/s | 0 W/m² | - |
| 1777974771 | 11.11° C | 57% | 1005.4 hPa | 0 mm | 0.45 m/s, 80° | 0 W/m² | - |
| 1777974466 | 11.11° C | 60% | 1005.5 hPa | 0 mm | 0 m/s | 0 W/m² | - |
| 1777974164 | 11.11° C | 57% | 1005.6 hPa | 0 mm | 0.45 m/s, 77° | 0 W/m² | - |
| 1777973859 | 11.11° C | 56% | 1005.8 hPa | 0 mm | 0.89 m/s, 64° | 0 W/m² | - |
| 1777973557 | 11.67° C | 56% | 1005.6 hPa | 0 mm | 0 m/s | 0 W/m² | - |
| 1777973254 | 11.67° C | 54% | 1005.5 hPa | 0 mm | 0 m/s | 0 W/m² | - |
| 1777972953 | 11.67° C | 57% | 1005.7 hPa | 0 mm | 0 m/s | 0 W/m² | - |
| 1777972649 | 11.67° C | 58% | 1005.8 hPa | 0 mm | 0.45 m/s, 78° | 0 W/m² | - |
* Rain latest hour (hover to see other rain measurements)
** Current wind speed in m/s (hover to see current wind gust speed)